Location: Shepherdstown, WV
(39.4326°N, 77.8042°W)
Time: 05:50:51
(UTC-04:00)

Vanguard 3 - Pass Details

Date: 04 August 2021
Orbit: 510 x 3260 km, 33.3° (Epoch: 21 September)

Event Time Altitude Azimuth Distance (km) Brightness Sun altitude
Rises 00:26:54 0° 282° (WNW) 6,978 12.2 -32.2°
Reaches altitude 10° 00:31:58 10° 276° (W) 6,116 11.8 -32.4°
Maximum altitude 00:48:44 36° 219° (SW) 4,227 10.3 -33.0°
Enters shadow 00:49:56 36° 212° (SSW) 4,202 10.3 -33.0°
Drops below altitude 10° 01:03:07 10° 159° (SSE) 5,224 - -33.3°
Sets 01:07:05 0° 151° (SSE) 5,894 - -33.3°
